Time,TemperatureF,DewpointF,PressureIn,WindDirection,WindDirectionDegrees,WindSpeedMPH,WindSpeedGustMPH,Humidity,HourlyPrecipIn,Conditions,Clouds,dailyrainin,SoftwareType,DateUTC
2013-01-08 00:00:00,35.0,32.6,29.91,West,270,25.0,52.0,91,0.00,,,-99.99,Weather View 32 v60,2013-01-08 05:00:00,
2013-01-08 00:05:00,35.0,33.2,29.92,West,270,26.0,52.0,93,0.00,,,-99.99,Weather View 32 v60,2013-01-08 05:05:00,
2013-01-08 00:10:00,35.0,32.6,29.92,West,270,29.0,52.0,91,0.00,,,-99.99,Weather View 32 v60,2013-01-08 05:10:00,
2013-01-08 00:15:00,35.0,32.6,29.91,West,270,25.0,52.0,91,0.00,,,-99.99,Weather View 32 v60,2013-01-08 05:15:00,
2013-01-08 00:20:00,35.0,33.4,29.91,West,270,28.0,52.0,94,0.00,,,-99.99,Weather View 32 v60,2013-01-08 05:20:00,
2013-01-08 00:25:00,35.0,32.4,29.91,West,270,30.0,52.0,90,0.00,,,-99.99,Weather View 32 v60,2013-01-08 05:25:00,
2013-01-08 00:30:00,35.0,32.6,29.91,West,270,23.0,52.0,91,0.00,,,-99.99,Weather View 32 v60,2013-01-08 05:30:00,
2013-01-08 00:35:00,36.0,33.9,29.91,West,270,29.0,49.0,92,0.00,,,-99.99,Weather View 32 v60,2013-01-08 05:35:00,
2013-01-08 00:40:00,35.0,32.6,29.91,West,270,30.0,49.0,91,0.00,,,-99.99,Weather View 32 v60,2013-01-08 05:40:00,
2013-01-08 00:45:00,35.0,33.2,29.92,West,270,28.0,49.0,93,0.00,,,-99.99,Weather View 32 v60,2013-01-08 05:45:00,
2013-01-08 00:50:00,35.0,33.4,29.92,West,270,34.0,49.0,94,0.00,,,-99.99,Weather View 32 v60,2013-01-08 05:50:00,
2013-01-08 00:55:00,35.0,33.4,29.93,West,270,31.0,49.0,94,0.00,,,-99.99,Weather View 32 v60,2013-01-08 05:55:00,
2013-01-08 01:00:00,35.0,33.2,29.93,West,270,27.0,49.0,93,0.00,,,-99.99,Weather View 32 v60,2013-01-08 06:00:00,
2013-01-08 01:05:00,36.0,34.2,29.93,West,270,31.0,49.0,93,0.00,,,-99.99,Weather View 32 v60,2013-01-08 06:05:00,
2013-01-08 01:10:00,35.0,32.6,29.93,West,270,30.0,47.0,91,0.00,,,-99.99,Weather View 32 v60,2013-01-08 06:10:00,
2013-01-08 01:15:00,36.0,34.4,29.93,West,270,30.0,47.0,94,0.00,,,-99.99,Weather View 32 v60,2013-01-08 06:15:00,
2013-01-08 01:20:00,35.0,32.9,29.93,West,270,27.0,47.0,92,0.00,,,-99.99,Weather View 32 v60,2013-01-08 06:20:00,
2013-01-08 01:25:00,36.0,33.9,29.93,West,270,23.0,47.0,92,0.00,,,-99.99,Weather View 32 v60,2013-01-08 06:25:00,
2013-01-08 01:30:00,36.0,33.6,29.93,WSW,247,23.0,47.0,91,0.00,,,-99.99,Weather View 32 v60,2013-01-08 06:30:00,
2013-01-08 01:35:00,36.0,33.9,29.92,West,270,31.0,48.0,92,0.00,,,-99.99,Weather View 32 v60,2013-01-08 06:35:00,
2013-01-08 01:40:00,36.0,34.2,29.92,West,270,28.0,48.0,93,0.00,,,-99.99,Weather View 32 v60,2013-01-08 06:40:00,
2013-01-08 01:45:00,36.0,33.9,29.93,West,270,22.0,48.0,92,0.00,,,-99.99,Weather View 32 v60,2013-01-08 06:45:00,
2013-01-08 01:50:00,35.0,33.4,29.93,West,270,26.0,48.0,94,0.00,,,-99.99,Weather View 32 v60,2013-01-08 06:50:00,
2013-01-08 01:55:00,36.0,33.9,29.93,West,270,26.0,48.0,92,0.00,,,-99.99,Weather View 32 v60,2013-01-08 06:55:00,
2013-01-08 02:00:00,36.0,34.4,29.93,West,270,23.0,48.0,94,0.00,,,-99.99,Weather View 32 v60,2013-01-08 07:00:00,
2013-01-08 02:05:00,36.0,34.2,29.93,West,270,22.0,48.0,93,0.00,,,-99.99,Weather View 32 v60,2013-01-08 07:05:00,
2013-01-08 02:10:00,35.0,33.4,29.93,West,270,19.0,48.0,94,0.00,,,-99.99,Weather View 32 v60,2013-01-08 07:10:00,
2013-01-08 02:15:00,36.0,34.4,29.93,West,270,21.0,48.0,94,0.00,,,-99.99,Weather View 32 v60,2013-01-08 07:15:00,
2013-01-08 02:20:00,36.0,34.2,29.93,West,270,22.0,48.0,93,0.00,,,-99.99,Weather View 32 v60,2013-01-08 07:20:00,
2013-01-08 02:25:00,36.0,34.7,29.93,West,270,24.0,48.0,95,0.00,,,-99.99,Weather View 32 v60,2013-01-08 07:25:00,
2013-01-08 02:30:00,36.0,34.4,29.93,West,270,25.0,48.0,94,0.00,,,-99.99,Weather View 32 v60,2013-01-08 07:30:00,
2013-01-08 02:35:00,36.0,33.6,29.93,West,270,21.0,39.0,91,0.00,,,-99.99,Weather View 32 v60,2013-01-08 07:35:00,
2013-01-08 02:40:00,36.0,34.7,29.93,West,270,21.0,39.0,95,0.00,,,-99.99,Weather View 32 v60,2013-01-08 07:40:00,
2013-01-08 02:45:00,36.0,33.9,29.92,West,270,22.0,39.0,92,0.00,,,-99.99,Weather View 32 v60,2013-01-08 07:45:00,
2013-01-08 02:50:00,36.0,34.7,29.92,West,270,26.0,39.0,95,0.00,,,-99.99,Weather View 32 v60,2013-01-08 07:50:00,
2013-01-08 02:55:00,36.0,34.4,29.93,WSW,247,24.0,39.0,94,0.00,,,-99.99,Weather View 32 v60,2013-01-08 07:55:00,
2013-01-08 03:00:00,36.0,34.2,29.93,West,270,21.0,39.0,93,0.00,,,-99.99,Weather View 32 v60,2013-01-08 08:00:00,
2013-01-08 03:05:00,36.0,34.4,29.93,West,270,24.0,39.0,94,0.00,,,-99.99,Weather View 32 v60,2013-01-08 08:05:00,
2013-01-08 03:10:00,36.0,34.2,29.93,West,270,22.0,39.0,93,0.00,,,-99.99,Weather View 32 v60,2013-01-08 08:10:00,
2013-01-08 03:15:00,36.0,34.4,29.93,West,270,21.0,39.0,94,0.00,,,-99.99,Weather View 32 v60,2013-01-08 08:15:00,
2013-01-08 03:20:00,36.0,34.2,29.93,West,270,19.0,39.0,93,0.00,,,-99.99,Weather View 32 v60,2013-01-08 08:20:00,
2013-01-08 03:25:00,36.0,34.2,29.93,West,270,19.0,39.0,93,0.00,,,-99.99,Weather View 32 v60,2013-01-08 08:25:00,
2013-01-08 03:30:00,36.0,34.7,29.93,West,270,18.0,39.0,95,0.00,,,-99.99,Weather View 32 v60,2013-01-08 08:30:00,
2013-01-08 03:35:00,36.0,34.4,29.93,West,270,25.0,31.0,94,0.00,,,-99.99,Weather View 32 v60,2013-01-08 08:35:00,
2013-01-08 03:40:00,36.0,34.2,29.93,West,270,20.0,31.0,93,0.00,,,-99.99,Weather View 32 v60,2013-01-08 08:40:00,
2013-01-08 03:45:00,36.0,33.9,29.93,West,270,20.0,31.0,92,0.00,,,-99.99,Weather View 32 v60,2013-01-08 08:45:00,
2013-01-08 03:50:00,36.0,34.2,29.93,West,270,23.0,31.0,93,0.00,,,-99.99,Weather View 32 v60,2013-01-08 08:50:00,
2013-01-08 04:05:00,36.0,34.2,29.93,West,270,22.0,37.0,93,0.00,,,-99.99,Weather View 32 v60,2013-01-08 09:05:00,
2013-01-08 04:20:00,35.0,34.0,29.93,WSW,247,15.0,37.0,96,0.00,,,-99.99,Weather View 32 v60,2013-01-08 09:20:00,
2013-01-08 04:35:00,36.0,35.0,29.93,West,270,19.0,37.0,96,0.00,,,-99.99,Weather View 32 v60,2013-01-08 09:35:00,
2013-01-08 04:40:00,36.0,34.7,29.93,West,270,20.0,39.0,95,0.00,,,-99.99,Weather View 32 v60,2013-01-08 09:40:00,
2013-01-08 04:45:00,36.0,34.7,29.93,SW,225,18.0,39.0,95,0.00,,,-99.99,Weather View 32 v60,2013-01-08 09:45:00,
2013-01-08 04:50:00,36.0,34.7,29.93,West,270,20.0,39.0,95,0.00,,,-99.99,Weather View 32 v60,2013-01-08 09:50:00,
2013-01-08 04:55:00,36.0,34.7,29.94,WSW,247,18.0,39.0,95,0.00,,,-99.99,Weather View 32 v60,2013-01-08 09:55:00,
2013-01-08 04:59:00,36.0,34.2,29.93,West,270,16.0,31.0,93,0.00,,,-99.99,Weather View 32 v60,2013-01-08 09:59:00,
2013-01-08 05:00:00,36.0,35.0,29.94,WSW,247,18.0,39.0,96,0.00,,,-99.99,Weather View 32 v60,2013-01-08 10:00:00,
2013-01-08 05:04:00,36.0,34.7,29.93,West,270,20.0,37.0,95,0.00,,,-99.99,Weather View 32 v60,2013-01-08 10:04:00,
2013-01-08 05:05:00,36.0,34.7,29.93,WSW,247,19.0,39.0,95,0.00,,,-99.99,Weather View 32 v60,2013-01-08 10:05:00,
2013-01-08 05:14:00,36.0,34.7,29.93,WSW,247,19.0,37.0,95,0.00,,,-99.99,Weather View 32 v60,2013-01-08 10:14:00,
2013-01-08 05:15:00,36.0,34.7,29.94,West,270,19.0,39.0,95,0.00,,,-99.99,Weather View 32 v60,2013-01-08 10:15:00,
2013-01-08 05:19:00,36.0,34.7,29.93,West,270,21.0,37.0,95,0.00,,,-99.99,Weather View 32 v60,2013-01-08 10:19:00,
2013-01-08 05:20:00,36.0,35.0,29.94,West,270,20.0,39.0,96,0.00,,,-99.99,Weather View 32 v60,2013-01-08 10:20:00,
2013-01-08 05:29:00,36.0,35.0,29.93,West,270,20.0,37.0,96,0.00,,,-99.99,Weather View 32 v60,2013-01-08 10:29:00,
2013-01-08 05:30:00,36.0,35.0,29.94,West,270,18.0,39.0,96,0.00,,,-99.99,Weather View 32 v60,2013-01-08 10:30:00,
2013-01-08 05:34:00,36.0,34.7,29.93,West,270,20.0,37.0,95,0.00,,,-99.99,Weather View 32 v60,2013-01-08 10:34:00,
2013-01-08 05:40:00,36.0,34.7,29.94,WSW,247,20.0,39.0,95,0.00,,,-99.99,Weather View 32 v60,2013-01-08 10:40:00,
2013-01-08 05:45:00,36.0,35.0,29.94,WSW,247,13.0,39.0,96,0.00,,,-99.99,Weather View 32 v60,2013-01-08 10:45:00,
2013-01-08 06:00:00,35.0,34.0,29.95,WSW,247,18.0,39.0,96,0.00,,,-99.99,Weather View 32 v60,2013-01-08 11:00:00,
2013-01-08 06:05:00,36.0,34.7,29.95,West,270,13.0,39.0,95,0.00,,,-99.99,Weather View 32 v60,2013-01-08 11:05:00,
2013-01-08 06:10:00,35.0,34.0,29.95,West,270,10.0,39.0,96,0.00,,,-99.99,Weather View 32 v60,2013-01-08 11:10:00,
2013-01-08 06:13:00,36.0,34.7,29.93,West,270,22.0,39.0,95,0.00,,,-99.99,Weather View 32 v60,2013-01-08 11:13:00,
2013-01-08 06:15:00,36.0,35.2,29.95,SW,225,8.0,29.0,97,0.00,,,-99.99,Weather View 32 v60,2013-01-08 11:15:00,
2013-01-08 06:29:00,36.0,35.0,29.94,West,270,19.0,39.0,96,0.00,,,-99.99,Weather View 32 v60,2013-01-08 11:29:00,
2013-01-08 06:30:00,33.0,32.7,29.96,SW,225,9.0,29.0,99,0.00,,,-99.99,Weather View 32 v60,2013-01-08 11:30:00,
2013-01-08 06:39:00,36.0,34.7,29.94,WSW,247,19.0,39.0,95,0.00,,,-99.99,Weather View 32 v60,2013-01-08 11:39:00,
2013-01-08 06:50:00,32.0,32.0,29.97,South,180,8.0,25.0,100,0.00,,,-99.99,Weather View 32 v60,2013-01-08 11:50:00,
2013-01-08 06:54:00,36.0,34.7,29.94,WSW,247,19.0,39.0,95,0.00,,,-99.99,Weather View 32 v60,2013-01-08 11:54:00,
2013-01-08 06:59:00,36.0,34.4,29.95,West,270,19.0,39.0,94,0.00,,,-99.99,Weather View 32 v60,2013-01-08 11:59:00,
2013-01-08 07:00:00,31.0,31.0,29.98,SSW,202,10.0,25.0,100,0.00,,,-99.99,Weather View 32 v60,2013-01-08 12:00:00,
2013-01-08 07:05:00,32.0,32.0,29.99,SW,225,8.0,25.0,100,0.00,,,-99.99,Weather View 32 v60,2013-01-08 12:05:00,
2013-01-08 07:15:00,32.0,32.0,29.99,SE,135,6.0,25.0,100,0.00,,,-99.99,Weather View 32 v60,2013-01-08 12:15:00,
2013-01-08 07:24:00,34.0,33.7,29.95,SW,225,13.0,29.0,99,0.00,,,-99.99,Weather View 32 v60,2013-01-08 12:24:00,
2013-01-08 07:25:00,31.0,31.0,30.00,SE,135,5.0,20.0,100,0.00,,,-99.99,Weather View 32 v60,2013-01-08 12:25:00,
2013-01-08 07:29:00,33.0,33.0,29.96,SW,225,9.0,29.0,100,0.00,,,-99.99,Weather View 32 v60,2013-01-08 12:29:00,
2013-01-08 07:30:00,31.0,31.0,30.00,SE,135,6.0,20.0,100,0.00,,,-99.99,Weather View 32 v60,2013-01-08 12:30:00,
2013-01-08 07:34:00,33.0,32.7,29.96,SW,225,9.0,29.0,99,0.00,,,-99.99,Weather View 32 v60,2013-01-08 12:34:00,
2013-01-08 07:39:00,32.0,32.0,29.97,SW,225,10.0,29.0,100,0.00,,,-99.99,Weather View 32 v60,2013-01-08 12:39:00,
2013-01-08 07:40:00,30.0,30.0,30.00,SE,135,10.0,18.0,100,0.00,,,-99.99,Weather View 32 v60,2013-01-08 12:40:00,
2013-01-08 07:44:00,32.0,32.0,29.97,SW,225,8.0,29.0,100,0.00,,,-99.99,Weather View 32 v60,2013-01-08 12:44:00,
2013-01-08 07:45:00,30.0,30.0,30.00,SE,135,9.0,18.0,100,0.00,,,-99.99,Weather View 32 v60,2013-01-08 12:45:00,
2013-01-08 07:49:00,32.0,31.8,29.97,South,180,8.0,29.0,99,0.00,,,-99.99,Weather View 32 v60,2013-01-08 12:49:00,
2013-01-08 07:55:00,29.0,28.8,30.01,SE,135,10.0,18.0,99,0.00,,,-99.99,Weather View 32 v60,2013-01-08 12:55:00,
2013-01-08 07:59:00,32.0,32.0,29.98,South,180,6.0,25.0,100,0.00,,,-99.99,Weather View 32 v60,2013-01-08 12:59:00,
2013-01-08 08:00:00,29.0,28.8,30.01,SE,135,7.0,18.0,99,0.00,,,-99.99,Weather View 32 v60,2013-01-08 13:00:00,
2013-01-08 08:05:00,29.0,28.5,30.01,SE,135,9.0,18.0,98,0.00,,,-99.99,Weather View 32 v60,2013-01-08 13:05:00,
2013-01-08 08:14:00,32.0,32.0,29.99,SSE,157,4.0,25.0,100,0.00,,,-99.99,Weather View 32 v60,2013-01-08 13:14:00,
2013-01-08 08:24:00,31.0,31.0,29.99,SE,135,9.0,25.0,100,0.00,,,-99.99,Weather View 32 v60,2013-01-08 13:24:00,
2013-01-08 08:30:00,28.0,27.8,30.03,SE,135,6.0,18.0,99,0.00,,,-99.99,Weather View 32 v60,2013-01-08 13:30:00,
2013-01-08 08:35:00,29.0,28.8,30.03,SSE,157,5.0,18.0,99,0.00,,,-99.99,Weather View 32 v60,2013-01-08 13:35:00,
2013-01-08 08:39:00,31.0,31.0,30.00,SSE,157,7.0,15.0,100,0.00,,,-99.99,Weather View 32 v60,2013-01-08 13:39:00,
2013-01-08 08:40:00,29.0,29.0,30.03,SE,135,6.0,15.0,100,0.00,,,-99.99,Weather View 32 v60,2013-01-08 13:40:00,
2013-01-08 08:45:00,29.0,29.0,30.03,South,180,8.0,14.0,100,0.00,,,-99.99,Weather View 32 v60,2013-01-08 13:45:00,
2013-01-08 08:54:00,29.0,29.0,30.00,SSE,157,10.0,18.0,100,0.00,,,-99.99,Weather View 32 v60,2013-01-08 13:54:00,
2013-01-08 09:00:00,29.0,29.0,30.03,South,180,4.0,19.0,100,0.00,,,-99.99,Weather View 32 v60,2013-01-08 14:00:00,
2013-01-08 09:05:00,30.0,30.0,30.03,South,180,7.0,19.0,100,0.00,,,-99.99,Weather View 32 v60,2013-01-08 14:05:00,
2013-01-08 09:14:00,28.0,27.8,30.01,SSE,157,5.0,18.0,99,0.00,,,-99.99,Weather View 32 v60,2013-01-08 14:14:00,
2013-01-08 09:15:00,31.0,30.2,30.02,SE,135,9.0,19.0,97,0.00,,,-99.99,Weather View 32 v60,2013-01-08 14:15:00,
2013-01-08 09:19:00,29.0,28.5,30.02,SE,135,4.0,18.0,98,0.00,,,-99.99,Weather View 32 v60,2013-01-08 14:19:00,
2013-01-08 09:24:00,28.0,27.8,30.02,SE,135,6.0,18.0,99,0.00,,,-99.99,Weather View 32 v60,2013-01-08 14:24:00,
2013-01-08 09:25:00,31.0,30.0,30.03,South,180,10.0,19.0,96,0.00,,,-99.99,Weather View 32 v60,2013-01-08 14:25:00,
2013-01-08 09:29:00,29.0,28.8,30.03,SE,135,5.0,18.0,99,0.00,,,-99.99,Weather View 32 v60,2013-01-08 14:29:00,
2013-01-08 09:30:00,31.0,29.7,30.03,WSW,247,9.0,19.0,95,0.00,,,-99.99,Weather View 32 v60,2013-01-08 14:30:00,
2013-01-08 09:34:00,28.0,27.8,30.03,SE,135,6.0,18.0,99,0.00,,,-99.99,Weather View 32 v60,2013-01-08 14:34:00,
2013-01-08 09:50:00,31.0,29.7,30.02,SSW,202,10.0,19.0,95,0.00,,,-99.99,Weather View 32 v60,2013-01-08 14:50:00,
2013-01-08 09:54:00,29.0,29.0,30.03,South,180,7.0,16.0,100,0.00,,,-99.99,Weather View 32 v60,2013-01-08 14:54:00,
2013-01-08 09:55:00,32.0,30.7,30.02,SW,225,10.0,18.0,95,0.00,,,-99.99,Weather View 32 v60,2013-01-08 14:55:00,
2013-01-08 09:59:00,29.0,29.0,30.03,SE,135,7.0,19.0,100,0.00,,,-99.99,Weather View 32 v60,2013-01-08 14:59:00,
2013-01-08 10:05:00,32.0,30.7,30.01,SW,225,12.0,29.0,95,0.00,,,-99.99,Weather View 32 v60,2013-01-08 15:05:00,
2013-01-08 10:14:00,30.0,29.8,30.03,South,180,6.0,19.0,99,0.00,,,-99.99,Weather View 32 v60,2013-01-08 15:14:00,
2013-01-08 10:24:00,31.0,30.0,30.02,SSW,202,9.0,19.0,96,0.00,,,-99.99,Weather View 32 v60,2013-01-08 15:24:00,
2013-01-08 10:30:00,32.0,31.0,30.01,SW,225,11.0,33.0,96,0.00,,,-99.99,Weather View 32 v60,2013-01-08 15:30:00,
2013-01-08 10:34:00,31.0,29.7,30.03,WSW,247,9.0,19.0,95,0.00,,,-99.99,Weather View 32 v60,2013-01-08 15:34:00,
2013-01-08 10:35:00,32.0,30.7,30.01,South,180,4.0,33.0,95,0.00,,,-99.99,Weather View 32 v60,2013-01-08 15:35:00,
2013-01-08 10:39:00,31.0,30.0,30.02,SW,225,10.0,19.0,96,0.00,,,-99.99,Weather View 32 v60,2013-01-08 15:39:00,
2013-01-08 10:40:00,32.0,30.7,30.01,SW,225,30.0,33.0,95,0.00,,,-99.99,Weather View 32 v60,2013-01-08 15:40:00,
2013-01-08 10:44:00,31.0,30.0,30.02,SW,225,6.0,19.0,96,0.00,,,-99.99,Weather View 32 v60,2013-01-08 15:44:00,
2013-01-08 10:45:00,32.0,30.5,30.01,SW,225,25.0,33.0,94,0.00,,,-99.99,Weather View 32 v60,2013-01-08 15:45:00,
2013-01-08 10:49:00,32.0,30.7,30.02,SW,225,11.0,19.0,95,0.00,,,-99.99,Weather View 32 v60,2013-01-08 15:49:00,
2013-01-08 10:50:00,32.0,30.7,30.01,SSW,202,25.0,33.0,95,0.00,,,-99.99,Weather View 32 v60,2013-01-08 15:50:00,
2013-01-08 10:55:00,32.0,30.7,30.01,SSW,202,5.0,33.0,95,0.00,,,-99.99,Weather View 32 v60,2013-01-08 15:55:00,
2013-01-08 11:04:00,31.0,30.0,30.02,SSW,202,8.0,29.0,96,0.00,,,-99.99,Weather View 32 v60,2013-01-08 16:04:00,
2013-01-08 11:05:00,32.0,31.0,30.01,SW,225,10.0,33.0,96,0.00,,,-99.99,Weather View 32 v60,2013-01-08 16:05:00,
2013-01-08 11:10:00,32.0,31.0,30.01,SW,225,15.0,33.0,96,0.00,,,-99.99,Weather View 32 v60,2013-01-08 16:10:00,
2013-01-08 11:14:00,32.0,30.7,30.01,SSW,202,10.0,30.0,95,0.00,,,-99.99,Weather View 32 v60,2013-01-08 16:14:00,
2013-01-08 11:19:00,32.0,30.7,30.01,SW,225,17.0,30.0,95,0.00,,,-99.99,Weather View 32 v60,2013-01-08 16:19:00,
2013-01-08 11:20:00,32.0,31.0,30.00,SW,225,19.0,33.0,96,0.00,,,-99.99,Weather View 32 v60,2013-01-08 16:20:00,
2013-01-08 11:24:00,31.0,30.0,30.01,SW,225,9.0,30.0,96,0.00,,,-99.99,Weather View 32 v60,2013-01-08 16:24:00,
2013-01-08 11:25:00,33.0,31.7,30.00,SW,225,15.0,33.0,95,0.00,,,-99.99,Weather View 32 v60,2013-01-08 16:25:00,
2013-01-08 11:29:00,32.0,30.7,30.01,WSW,247,14.0,30.0,95,0.00,,,-99.99,Weather View 32 v60,2013-01-08 16:29:00,
2013-01-08 11:30:00,33.0,31.7,30.00,SSW,202,9.0,33.0,95,0.00,,,-99.99,Weather View 32 v60,2013-01-08 16:30:00,
2013-01-08 11:34:00,32.0,31.0,30.01,SW,225,11.0,33.0,96,0.00,,,-99.99,Weather View 32 v60,2013-01-08 16:34:00,
2013-01-08 11:40:00,33.0,30.9,29.99,SW,225,15.0,33.0,92,0.00,,,-99.99,Weather View 32 v60,2013-01-08 16:40:00,
2013-01-08 11:50:00,33.0,30.9,29.99,SW,225,18.0,32.0,92,0.00,,,-99.99,Weather View 32 v60,2013-01-08 16:50:00,
2013-01-08 11:55:00,33.0,30.7,29.98,SW,225,14.0,30.0,91,0.00,,,-99.99,Weather View 32 v60,2013-01-08 16:55:00,
2013-01-08 12:00:00,33.0,30.7,29.98,SW,225,14.0,30.0,91,0.00,,,-99.99,Weather View 32 v60,2013-01-08 17:00:00,
2013-01-08 12:04:00,32.0,31.0,30.01,SW,225,9.0,33.0,96,0.00,,,-99.99,Weather View 32 v60,2013-01-08 17:04:00,
2013-01-08 12:10:00,33.0,30.4,29.98,SW,225,9.0,32.0,90,0.00,,,-99.99,Weather View 32 v60,2013-01-08 17:10:00,
2013-01-08 12:15:00,34.0,31.6,29.98,SW,225,8.0,32.0,91,0.00,,,-99.99,Weather View 32 v60,2013-01-08 17:15:00,
2013-01-08 12:19:00,33.0,32.0,30.00,WSW,247,12.0,33.0,96,0.00,,,-99.99,Weather View 32 v60,2013-01-08 17:19:00,
2013-01-08 12:20:00,34.0,31.6,29.98,SW,225,10.0,32.0,91,0.00,,,-99.99,Weather View 32 v60,2013-01-08 17:20:00,
2013-01-08 12:35:00,34.0,31.6,29.97,SW,225,9.0,32.0,91,0.00,,,-99.99,Weather View 32 v60,2013-01-08 17:35:00,
2013-01-08 12:39:00,33.0,31.2,29.99,SW,225,15.0,33.0,93,0.00,,,-99.99,Weather View 32 v60,2013-01-08 17:39:00,
2013-01-08 12:40:00,34.0,31.6,29.97,WSW,247,8.0,32.0,91,0.00,,,-99.99,Weather View 32 v60,2013-01-08 17:40:00,
2013-01-08 12:45:00,35.0,32.4,29.97,SW,225,6.0,32.0,90,0.00,,,-99.99,Weather View 32 v60,2013-01-08 17:45:00,
2013-01-08 12:49:00,33.0,30.9,29.99,SSW,202,15.0,33.0,92,0.00,,,-99.99,Weather View 32 v60,2013-01-08 17:49:00,
2013-01-08 12:50:00,35.0,32.1,29.97,SW,225,11.0,32.0,89,0.00,,,-99.99,Weather View 32 v60,2013-01-08 17:50:00,
2013-01-08 12:55:00,35.0,32.1,29.96,SW,225,8.0,32.0,89,0.00,,,-99.99,Weather View 32 v60,2013-01-08 17:55:00,
2013-01-08 13:00:00,35.0,31.2,29.96,SW,225,10.0,32.0,86,0.00,,,-99.99,Weather View 32 v60,2013-01-08 18:00:00,
2013-01-08 13:09:00,34.0,31.6,29.98,SW,225,12.0,32.0,91,0.00,,,-99.99,Weather View 32 v60,2013-01-08 18:09:00,
2013-01-08 13:15:00,35.0,32.1,29.96,SW,225,9.0,22.0,89,0.00,,,-99.99,Weather View 32 v60,2013-01-08 18:15:00,
2013-01-08 13:20:00,35.0,32.1,29.96,WSW,247,8.0,22.0,89,0.00,,,-99.99,Weather View 32 v60,2013-01-08 18:20:00,
2013-01-08 13:25:00,35.0,32.4,29.97,SW,225,8.0,20.0,90,0.00,,,-99.99,Weather View 32 v60,2013-01-08 18:25:00,
2013-01-08 13:29:00,34.0,31.4,29.97,SW,225,10.0,32.0,90,0.00,,,-99.99,Weather View 32 v60,2013-01-08 18:29:00,
2013-01-08 13:30:00,35.0,32.4,29.97,SW,225,9.0,20.0,90,0.00,,,-99.99,Weather View 32 v60,2013-01-08 18:30:00,
2013-01-08 13:34:00,34.0,31.9,29.97,SW,225,8.0,32.0,92,0.00,,,-99.99,Weather View 32 v60,2013-01-08 18:34:00,
2013-01-08 13:35:00,35.0,32.1,29.96,SW,225,10.0,20.0,89,0.00,,,-99.99,Weather View 32 v60,2013-01-08 18:35:00,
2013-01-08 13:39:00,34.0,31.6,29.97,SW,225,9.0,32.0,91,0.00,,,-99.99,Weather View 32 v60,2013-01-08 18:39:00,
2013-01-08 13:40:00,35.0,32.1,29.96,SSW,202,4.0,20.0,89,0.00,,,-99.99,Weather View 32 v60,2013-01-08 18:40:00,
2013-01-08 13:45:00,35.0,31.5,29.96,SW,225,9.0,20.0,87,0.00,,,-99.99,Weather View 32 v60,2013-01-08 18:45:00,
2013-01-08 13:50:00,35.0,30.7,29.96,SW,225,8.0,17.0,84,0.00,,,-99.99,Weather View 32 v60,2013-01-08 18:50:00,
2013-01-08 13:55:00,36.0,31.0,29.96,SW,225,8.0,17.0,82,0.00,,,-99.99,Weather View 32 v60,2013-01-08 18:55:00,
2013-01-08 14:00:00,36.0,31.0,29.96,WSW,247,6.0,17.0,82,0.00,,,-99.99,Weather View 32 v60,2013-01-08 19:00:00,
2013-01-08 14:09:00,35.0,32.1,29.96,SW,225,8.0,30.0,89,0.00,,,-99.99,Weather View 32 v60,2013-01-08 19:09:00,
2013-01-08 14:10:00,37.0,32.0,29.96,South,180,3.0,17.0,82,0.00,,,-99.99,Weather View 32 v60,2013-01-08 19:10:00,
2013-01-08 14:15:00,37.0,32.0,29.96,SW,225,10.0,17.0,82,0.00,,,-99.99,Weather View 32 v60,2013-01-08 19:15:00,
2013-01-08 14:20:00,37.0,32.6,29.96,SSE,157,0.0,17.0,84,0.00,,,-99.99,Weather View 32 v60,2013-01-08 19:20:00,
2013-01-08 14:25:00,37.0,32.6,29.97,South,180,9.0,17.0,84,0.00,,,-99.99,Weather View 32 v60,2013-01-08 19:25:00,
2013-01-08 14:35:00,38.0,31.1,29.96,SE,135,7.0,15.0,76,0.00,,,-99.99,Weather View 32 v60,2013-01-08 19:35:00,
2013-01-08 14:40:00,38.0,30.4,29.96,SSE,157,8.0,15.0,74,0.00,,,-99.99,Weather View 32 v60,2013-01-08 19:40:00,
2013-01-08 14:55:00,39.0,30.4,29.96,SSE,157,6.0,17.0,71,0.00,,,-99.99,Weather View 32 v60,2013-01-08 19:55:00,
2013-01-08 15:05:00,39.0,30.0,29.95,SSE,157,6.0,17.0,70,0.00,,,-99.99,Weather View 32 v60,2013-01-08 20:05:00,
2013-01-08 15:09:00,37.0,31.7,29.96,SW,225,6.0,17.0,81,0.00,,,-99.99,Weather View 32 v60,2013-01-08 20:09:00,
2013-01-08 15:25:00,39.0,29.7,29.95,SSE,157,15.0,20.0,69,0.00,,,-99.99,Weather View 32 v60,2013-01-08 20:25:00,
2013-01-08 15:30:00,38.0,29.1,29.95,South,180,7.0,20.0,70,0.00,,,-99.99,Weather View 32 v60,2013-01-08 20:30:00,
2013-01-08 15:34:00,37.0,32.0,29.97,SSW,202,6.0,17.0,82,0.00,,,-99.99,Weather View 32 v60,2013-01-08 20:34:00,
2013-01-08 15:35:00,39.0,29.3,29.95,SSE,157,10.0,20.0,68,0.00,,,-99.99,Weather View 32 v60,2013-01-08 20:35:00,
2013-01-08 15:49:00,38.0,29.4,29.96,SSE,157,3.0,15.0,71,0.00,,,-99.99,Weather View 32 v60,2013-01-08 20:49:00,
2013-01-08 15:54:00,38.0,29.8,29.96,SSE,157,5.0,15.0,72,0.00,,,-99.99,Weather View 32 v60,2013-01-08 20:54:00,
2013-01-08 16:00:00,38.0,28.4,29.95,South,180,8.0,24.0,68,0.00,,,-99.99,Weather View 32 v60,2013-01-08 21:00:00,
2013-01-08 16:04:00,38.0,29.4,29.96,SE,135,5.0,17.0,71,0.00,,,-99.99,Weather View 32 v60,2013-01-08 21:04:00,
2013-01-08 16:14:00,38.0,29.1,29.95,South,180,6.0,17.0,70,0.00,,,-99.99,Weather View 32 v60,2013-01-08 21:14:00,
2013-01-08 16:19:00,39.0,30.0,29.95,SSE,157,6.0,17.0,70,0.00,,,-99.99,Weather View 32 v60,2013-01-08 21:19:00,
2013-01-08 16:24:00,38.0,29.1,29.95,South,180,8.0,17.0,70,0.00,,,-99.99,Weather View 32 v60,2013-01-08 21:24:00,
2013-01-08 16:25:00,38.0,28.4,29.95,SE,135,6.0,24.0,68,0.00,,,-99.99,Weather View 32 v60,2013-01-08 21:25:00,
2013-01-08 16:30:00,37.0,28.5,29.95,SE,135,7.0,24.0,71,0.00,,,-99.99,Weather View 32 v60,2013-01-08 21:30:00,
2013-01-08 16:35:00,38.0,28.7,29.95,SSW,202,13.0,24.0,69,0.00,,,-99.99,Weather View 32 v60,2013-01-08 21:35:00,
2013-01-08 16:44:00,38.0,28.7,29.95,South,180,11.0,20.0,69,0.00,,,-99.99,Weather View 32 v60,2013-01-08 21:44:00,
2013-01-08 16:49:00,39.0,30.0,29.95,South,180,8.0,20.0,70,0.00,,,-99.99,Weather View 32 v60,2013-01-08 21:49:00,
2013-01-08 16:54:00,38.0,29.1,29.95,South,180,8.0,24.0,70,0.00,,,-99.99,Weather View 32 v60,2013-01-08 21:54:00,
2013-01-08 16:55:00,37.0,28.5,29.95,SE,135,7.0,32.0,71,0.00,,,-99.99,Weather View 32 v60,2013-01-08 21:55:00,
2013-01-08 16:59:00,38.0,28.7,29.95,South,180,10.0,24.0,69,0.00,,,-99.99,Weather View 32 v60,2013-01-08 21:59:00,
2013-01-08 17:09:00,38.0,29.1,29.95,SE,135,10.0,24.0,70,0.00,,,-99.99,Weather View 32 v60,2013-01-08 22:09:00,
2013-01-08 17:14:00,38.0,29.1,29.95,SE,135,8.0,24.0,70,0.00,,,-99.99,Weather View 32 v60,2013-01-08 22:14:00,
2013-01-08 17:15:00,37.0,28.8,29.94,SE,135,9.0,32.0,72,0.00,,,-99.99,Weather View 32 v60,2013-01-08 22:15:00,
2013-01-08 17:19:00,38.0,29.1,29.95,SSE,157,7.0,24.0,70,0.00,,,-99.99,Weather View 32 v60,2013-01-08 22:19:00,
2013-01-08 17:20:00,36.0,27.8,29.94,SE,135,9.0,32.0,72,0.00,,,-99.99,Weather View 32 v60,2013-01-08 22:20:00,
2013-01-08 17:24:00,38.0,29.1,29.95,South,180,10.0,24.0,70,0.00,,,-99.99,Weather View 32 v60,2013-01-08 22:24:00,
2013-01-08 17:25:00,37.0,29.1,29.94,SSE,157,13.0,32.0,73,0.00,,,-99.99,Weather View 32 v60,2013-01-08 22:25:00,
2013-01-08 17:30:00,36.0,28.5,29.94,South,180,12.0,32.0,74,0.00,,,-99.99,Weather View 32 v60,2013-01-08 22:30:00,
2013-01-08 17:35:00,36.0,28.5,29.94,South,180,9.0,32.0,74,0.00,,,-99.99,Weather View 32 v60,2013-01-08 22:35:00,
2013-01-08 17:44:00,37.0,28.5,29.95,SSE,157,14.0,28.0,71,0.00,,,-99.99,Weather View 32 v60,2013-01-08 22:44:00,
2013-01-08 17:49:00,37.0,28.1,29.95,SSE,157,19.0,28.0,70,0.00,,,-99.99,Weather View 32 v60,2013-01-08 22:49:00,
2013-01-08 17:50:00,36.0,28.8,29.94,South,180,12.0,22.0,75,0.00,,,-99.99,Weather View 32 v60,2013-01-08 22:50:00,
2013-01-08 17:54:00,37.0,28.5,29.95,SE,135,15.0,32.0,71,0.00,,,-99.99,Weather View 32 v60,2013-01-08 22:54:00,
2013-01-08 18:00:00,35.0,28.2,29.94,SW,225,6.0,22.0,76,0.00,,,-99.99,Weather View 32 v60,2013-01-08 23:00:00,
2013-01-08 18:04:00,37.0,28.5,29.95,SE,135,10.0,32.0,71,0.00,,,-99.99,Weather View 32 v60,2013-01-08 23:04:00,
2013-01-08 18:09:00,37.0,28.5,29.94,SE,135,13.0,32.0,71,0.00,,,-99.99,Weather View 32 v60,2013-01-08 23:09:00,
2013-01-08 18:10:00,35.0,28.2,29.94,South,180,7.0,21.0,76,0.00,,,-99.99,Weather View 32 v60,2013-01-08 23:10:00,
2013-01-08 18:14:00,37.0,28.8,29.94,SE,135,10.0,32.0,72,0.00,,,-99.99,Weather View 32 v60,2013-01-08 23:14:00,
2013-01-08 18:30:00,35.0,28.2,29.93,South,180,7.0,21.0,76,0.00,,,-99.99,Weather View 32 v60,2013-01-08 23:30:00,
2013-01-08 18:35:00,35.0,27.9,29.94,South,180,11.0,21.0,75,0.00,,,-99.99,Weather View 32 v60,2013-01-08 23:35:00,
2013-01-08 18:39:00,36.0,28.5,29.94,South,180,9.0,32.0,74,0.00,,,-99.99,Weather View 32 v60,2013-01-08 23:39:00,
2013-01-08 18:44:00,36.0,28.5,29.94,South,180,12.0,32.0,74,0.00,,,-99.99,Weather View 32 v60,2013-01-08 23:44:00,
2013-01-08 18:45:00,35.0,28.2,29.93,SSW,202,4.0,23.0,76,0.00,,,-99.99,Weather View 32 v60,2013-01-08 23:45:00,
2013-01-08 18:49:00,36.0,28.5,29.94,SE,135,15.0,32.0,74,0.00,,,-99.99,Weather View 32 v60,2013-01-08 23:49:00,
2013-01-08 18:50:00,35.0,28.2,29.93,South,180,12.0,23.0,76,0.00,,,-99.99,Weather View 32 v60,2013-01-08 23:50:00,
2013-01-08 18:59:00,36.0,28.8,29.94,SE,135,10.0,22.0,75,0.00,,,-99.99,Weather View 32 v60,2013-01-08 23:59:00,
2013-01-08 19:00:00,35.0,28.2,29.93,SW,225,14.0,28.0,76,0.00,,,-99.99,Weather View 32 v60,2013-01-09 00:00:00,
2013-01-08 19:09:00,36.0,28.8,29.94,SE,135,15.0,21.0,75,0.00,,,-99.99,Weather View 32 v60,2013-01-09 00:09:00,
2013-01-08 19:15:00,35.0,27.9,29.92,SSW,202,11.0,28.0,75,0.00,,,-99.99,Weather View 32 v60,2013-01-09 00:15:00,
2013-01-08 19:19:00,36.0,28.8,29.94,SE,135,8.0,21.0,75,0.00,,,-99.99,Weather View 32 v60,2013-01-09 00:19:00,
2013-01-08 19:20:00,35.0,28.2,29.92,South,180,15.0,28.0,76,0.00,,,-99.99,Weather View 32 v60,2013-01-09 00:20:00,
2013-01-08 19:24:00,35.0,28.2,29.94,South,180,8.0,21.0,76,0.00,,,-99.99,Weather View 32 v60,2013-01-09 00:24:00,
2013-01-08 19:29:00,35.0,28.2,29.93,South,180,12.0,21.0,76,0.00,,,-99.99,Weather View 32 v60,2013-01-09 00:29:00,
2013-01-08 19:39:00,35.0,27.9,29.94,South,180,11.0,21.0,75,0.00,,,-99.99,Weather View 32 v60,2013-01-09 00:39:00,
2013-01-08 19:40:00,35.0,28.5,29.93,SW,225,10.0,28.0,77,0.00,,,-99.99,Weather View 32 v60,2013-01-09 00:40:00,
2013-01-08 19:59:00,35.0,27.9,29.93,SE,135,12.0,23.0,75,0.00,,,-99.99,Weather View 32 v60,2013-01-09 00:59:00,
2013-01-08 20:05:00,35.0,28.2,29.92,SW,225,12.0,27.0,76,0.00,,,-99.99,Weather View 32 v60,2013-01-09 01:05:00,
2013-01-08 20:09:00,35.0,28.2,29.93,SE,135,9.0,28.0,76,0.00,,,-99.99,Weather View 32 v60,2013-01-09 01:09:00,
2013-01-08 20:10:00,35.0,27.9,29.92,SW,225,11.0,27.0,75,0.00,,,-99.99,Weather View 32 v60,2013-01-09 01:10:00,
2013-01-08 20:14:00,35.0,28.2,29.93,SE,135,10.0,28.0,76,0.00,,,-99.99,Weather View 32 v60,2013-01-09 01:14:00,
2013-01-08 20:20:00,35.0,27.9,29.92,SSW,202,8.0,27.0,75,0.00,,,-99.99,Weather View 32 v60,2013-01-09 01:20:00,
2013-01-08 20:25:00,35.0,27.9,29.91,SSW,202,5.0,27.0,75,0.00,,,-99.99,Weather View 32 v60,2013-01-09 01:25:00,
2013-01-08 20:29:00,35.0,28.2,29.92,SE,135,11.0,28.0,76,0.00,,,-99.99,Weather View 32 v60,2013-01-09 01:29:00,
2013-01-08 20:30:00,35.0,28.2,29.91,SSE,157,11.0,27.0,76,0.00,,,-99.99,Weather View 32 v60,2013-01-09 01:30:00,
2013-01-08 20:34:00,35.0,28.2,29.92,South,180,13.0,28.0,76,0.00,,,-99.99,Weather View 32 v60,2013-01-09 01:34:00,
2013-01-08 20:39:00,35.0,28.2,29.93,South,180,8.0,28.0,76,0.00,,,-99.99,Weather View 32 v60,2013-01-09 01:39:00,
2013-01-08 20:40:00,35.0,27.9,29.91,South,180,10.0,32.0,75,0.00,,,-99.99,Weather View 32 v60,2013-01-09 01:40:00,
2013-01-08 20:45:00,35.0,27.5,29.90,SW,225,12.0,32.0,74,0.00,,,-99.99,Weather View 32 v60,2013-01-09 01:45:00,
2013-01-08 20:49:00,35.0,28.5,29.93,SW,225,14.0,28.0,77,0.00,,,-99.99,Weather View 32 v60,2013-01-09 01:49:00,
2013-01-08 20:54:00,35.0,28.5,29.93,SSW,202,11.0,28.0,77,0.00,,,-99.99,Weather View 32 v60,2013-01-09 01:54:00,
2013-01-08 20:55:00,36.0,27.8,29.90,SW,225,12.0,32.0,72,0.00,,,-99.99,Weather View 32 v60,2013-01-09 01:55:00,
2013-01-08 20:59:00,35.0,28.2,29.93,South,180,13.0,28.0,76,0.00,,,-99.99,Weather View 32 v60,2013-01-09 01:59:00,
2013-01-08 21:04:00,35.0,28.5,29.93,South,180,7.0,28.0,77,0.00,,,-99.99,Weather View 32 v60,2013-01-09 02:04:00,
2013-01-08 21:15:00,36.0,26.8,29.88,SW,225,12.0,34.0,69,0.00,,,-99.99,Weather View 32 v60,2013-01-09 02:15:00,
2013-01-08 21:19:00,35.0,27.5,29.92,SW,225,10.0,27.0,74,0.00,,,-99.99,Weather View 32 v60,2013-01-09 02:19:00,
2013-01-08 21:30:00,36.0,27.5,29.89,SSW,202,11.0,37.0,71,0.00,,,-99.99,Weather View 32 v60,2013-01-09 02:30:00,
2013-01-08 21:35:00,36.0,27.5,29.89,SW,225,11.0,37.0,71,0.00,,,-99.99,Weather View 32 v60,2013-01-09 02:35:00,
2013-01-08 21:39:00,35.0,27.9,29.91,South,180,10.0,27.0,75,0.00,,,-99.99,Weather View 32 v60,2013-01-09 02:39:00,
2013-01-08 21:40:00,36.0,27.8,29.89,South,180,11.0,37.0,72,0.00,,,-99.99,Weather View 32 v60,2013-01-09 02:40:00,
2013-01-08 21:44:00,35.0,27.9,29.91,South,180,10.0,32.0,75,0.00,,,-99.99,Weather View 32 v60,2013-01-09 02:44:00,
2013-01-08 21:45:00,36.0,27.5,29.90,SSW,202,19.0,37.0,71,0.00,,,-99.99,Weather View 32 v60,2013-01-09 02:45:00,
2013-01-08 21:50:00,36.0,27.8,29.90,SSW,202,19.0,37.0,72,0.00,,,-99.99,Weather View 32 v60,2013-01-09 02:50:00,
2013-01-08 21:54:00,36.0,28.2,29.90,South,180,16.0,32.0,73,0.00,,,-99.99,Weather View 32 v60,2013-01-09 02:54:00,
2013-01-08 21:55:00,36.0,28.5,29.90,SW,225,8.0,37.0,74,0.00,,,-99.99,Weather View 32 v60,2013-01-09 02:55:00,
2013-01-08 22:00:00,36.0,28.8,29.90,SW,225,10.0,37.0,75,0.00,,,-99.99,Weather View 32 v60,2013-01-09 03:00:00,
2013-01-08 22:04:00,36.0,27.8,29.90,SSW,202,19.0,32.0,72,0.00,,,-99.99,Weather View 32 v60,2013-01-09 03:04:00,
2013-01-08 22:05:00,36.0,28.5,29.90,SW,225,22.0,37.0,74,0.00,,,-99.99,Weather View 32 v60,2013-01-09 03:05:00,
2013-01-08 22:09:00,36.0,27.5,29.89,SSW,202,13.0,34.0,71,0.00,,,-99.99,Weather View 32 v60,2013-01-09 03:09:00,
2013-01-08 22:14:00,36.0,27.5,29.89,SSW,202,21.0,34.0,71,0.00,,,-99.99,Weather View 32 v60,2013-01-09 03:14:00,
2013-01-08 22:24:00,36.0,26.8,29.88,SW,225,10.0,34.0,69,0.00,,,-99.99,Weather View 32 v60,2013-01-09 03:24:00,
2013-01-08 22:25:00,36.0,29.5,29.90,SW,225,24.0,44.0,77,0.00,,,-99.99,Weather View 32 v60,2013-01-09 03:25:00,
2013-01-08 22:29:00,36.0,26.8,29.89,SW,225,10.0,37.0,69,0.00,,,-99.99,Weather View 32 v60,2013-01-09 03:29:00,
2013-01-08 22:30:00,36.0,29.5,29.90,SW,225,21.0,44.0,77,0.00,,,-99.99,Weather View 32 v60,2013-01-09 03:30:00,
2013-01-08 22:35:00,36.0,29.5,29.89,SW,225,10.0,44.0,77,0.00,,,-99.99,Weather View 32 v60,2013-01-09 03:35:00,
2013-01-08 22:40:00,36.0,29.8,29.89,SW,225,10.0,44.0,78,0.00,,,-99.99,Weather View 32 v60,2013-01-09 03:40:00,
2013-01-08 22:45:00,36.0,27.8,29.89,South,180,11.0,37.0,72,0.00,,,-99.99,Weather View 32 v60,2013-01-09 03:45:00,
2013-01-08 23:00:00,36.0,31.6,29.89,SW,225,24.0,44.0,84,0.00,,,-99.99,Weather View 32 v60,2013-01-09 04:00:00,
2013-01-08 23:05:00,36.0,31.6,29.88,SW,225,33.0,44.0,84,0.00,,,-99.99,Weather View 32 v60,2013-01-09 04:05:00,
2013-01-08 23:10:00,36.0,32.2,29.88,SSW,202,13.0,44.0,86,0.00,,,-99.99,Weather View 32 v60,2013-01-09 04:10:00,
2013-01-08 23:14:00,36.0,28.5,29.90,South,180,16.0,37.0,74,0.00,,,-99.99,Weather View 32 v60,2013-01-09 04:14:00,
2013-01-08 23:15:00,36.0,31.9,29.87,SW,225,27.0,44.0,85,0.00,,,-99.99,Weather View 32 v60,2013-01-09 04:15:00,
2013-01-08 23:19:00,36.0,29.2,29.90,WSW,247,12.0,37.0,76,0.00,,,-99.99,Weather View 32 v60,2013-01-09 04:19:00,
2013-01-08 23:20:00,36.0,31.9,29.87,WSW,247,11.0,44.0,85,0.00,,,-99.99,Weather View 32 v60,2013-01-09 04:20:00,
2013-01-08 23:24:00,36.0,29.2,29.90,SW,225,17.0,37.0,76,0.00,,,-99.99,Weather View 32 v60,2013-01-09 04:24:00,
2013-01-08 23:25:00,36.0,31.9,29.87,SW,225,13.0,42.0,85,0.00,,,-99.99,Weather View 32 v60,2013-01-09 04:25:00,
2013-01-08 23:30:00,36.0,32.2,29.87,SW,225,25.0,42.0,86,0.00,,,-99.99,Weather View 32 v60,2013-01-09 04:30:00,
2013-01-08 23:35:00,36.0,32.5,29.88,SSW,202,17.0,42.0,87,0.00,,,-99.99,Weather View 32 v60,2013-01-09 04:35:00,
2013-01-08 23:40:00,36.0,32.5,29.88,SW,225,16.0,42.0,87,0.00,,,-99.99,Weather View 32 v60,2013-01-09 04:40:00,
2013-01-08 23:45:00,36.0,32.5,29.87,SSW,202,16.0,42.0,87,0.00,,,-99.99,Weather View 32 v60,2013-01-09 04:45:00,
2013-01-08 23:50:00,36.0,33.1,29.87,SW,225,21.0,42.0,89,0.00,,,-99.99,Weather View 32 v60,2013-01-09 04:50:00,
2013-01-08 23:54:00,36.0,31.0,29.89,SW,225,20.0,44.0,82,0.00,,,-99.99,Weather View 32 v60,2013-01-09 04:54:00,
2013-01-08 23:55:00,36.0,33.1,29.86,SW,225,16.0,41.0,89,0.00,,,-99.99,Weather View 32 v60,2013-01-09 04:55:00,
2013-01-08 23:59:00,36.0,31.3,29.89,South,180,13.0,44.0,83,0.00,,,-99.99,Weather View 32 v60,2013-01-09 04:59:00,